Linn Creek, MO

1:03 AM CST on February 14, 2016 (GMT -0600)
Camdenton

Weather History for KH21 - June, 2013

Change the Weather History Date:

Saturday, June 1, 2013

  Actual Average (KAIZ) Record (KAIZ)
Temperature  
Mean Temperature 66 °F -  
Max Temperature 73 °F 75 °F 87 °F (2002)
Min Temperature 60 °F 55 °F 46 °F (2003)
Cooling Degree Days 2    
Growing Degree Days 16 (Base 50)    
Moisture  
Dew Point 60 °F    
Average Humidity 81    
Maximum Humidity 100    
Minimum Humidity 53    
Precipitation  
Precipitation 0.21 in - - ()
Sea Level Pressure  
Sea Level Pressure 29.84 in    
Wind  
Wind Speed 9 mph (SW)    
Max Wind Speed 16 mph    
Max Gust Speed 25 mph    
Visibility 10 miles    
Events Rain , Thunderstorm    
Averages and records for this station are not official NWS values.
T = Trace of Precipitation, MM = Missing Value Source: NWS Daily Summary

Daily Weather History Graph

Daily Weather History Graph

Search for Another Location

Airport or City:

Trip Planner

Search our weather history database for the weather conditions in past years. The results will help you decide how hot, cold, wet, or windy it might be!

Date:

Astronomy

Jun. 01, 2013 Rise Set
Actual Time 5:49 AM CDT 8:27 PM CDT
Civil Twilight 5:19 AM CDT 8:58 PM CDT
Nautical Twilight 4:40 AM CDT 9:37 PM CDT
Astronomical Twilight 3:57 AM CDT 10:20 PM CDT
Moon 1:39 AM CDT (6/1) 2:03 PM CDT (6/1)
Length of Visible Light 15h 39m
Length of Day
14h 37m
Last Quarter, 40% of the Moon is Illuminated
Jun 1
Last Quarter
Jun 8
New
Jun 16
First Quarter
Jun 23
Full
Jun 29
Last Quarter

Hourly Weather History & Observations

Time (CDT) Temp. Dew Point Humidity Pressure Visibility Wind Dir Wind Speed Gust Speed Precip Events Conditions
12:15 AM 64.4 °F 62.6 °F 94% 29.84 in 10.0 mi SE 9.2 mph - N/A   Scattered Clouds
12:35 AM 62.6 °F 62.6 °F 100% 29.77 in 10.0 mi East 4.6 mph - N/A Thunderstorm Thunderstorm
12:55 AM 62.6 °F 62.6 °F 100% 29.78 in 10.0 mi SSE 6.9 mph - N/A   Clear
1:15 AM 62.6 °F 62.6 °F 100% 29.78 in 10.0 mi SSE 6.9 mph - N/A Rain Light Rain
1:35 AM 64.4 °F 62.6 °F 94% 29.79 in 10.0 mi SSE 10.4 mph - N/A Rain , Thunderstorm Light Thunderstorms and Rain
1:55 AM 64.4 °F 62.6 °F 94% 29.75 in 10.0 mi SE 10.4 mph - N/A Thunderstorm Scattered Clouds
2:15 AM 62.6 °F 62.6 °F 100% 29.73 in 10.0 mi NE 3.5 mph - N/A   Mostly Cloudy
2:35 AM 62.6 °F 62.6 °F 100% 29.77 in 10.0 mi SSE 8.1 mph - N/A Thunderstorm Overcast
2:55 AM 64.4 °F 62.6 °F 94% 29.75 in 10.0 mi SE 10.4 mph - N/A   Scattered Clouds
3:15 AM 64.4 °F 62.6 °F 94% 29.75 in 10.0 mi SE 6.9 mph - N/A   Scattered Clouds
3:35 AM 64.4 °F 62.6 °F 94% 29.75 in 10.0 mi SE 8.1 mph - N/A Thunderstorm Scattered Clouds
3:55 AM 62.6 °F 62.6 °F 100% 29.72 in 10.0 mi SE 8.1 mph - N/A Rain , Thunderstorm Light Thunderstorms and Rain
4:15 AM 62.6 °F 62.6 °F 100% 29.73 in 10.0 mi SE 10.4 mph - N/A   Clear
4:35 AM 64.4 °F 62.6 °F 94% 29.74 in 10.0 mi SSE 8.1 mph - N/A   Clear
4:55 AM 64.4 °F 62.6 °F 94% 29.76 in 10.0 mi SSE 10.4 mph - N/A Rain , Thunderstorm Light Thunderstorms and Rain
5:15 AM 62.6 °F 62.6 °F 100% 29.76 in 10.0 mi SE 10.4 mph - 0.01 in Rain , Thunderstorm Light Thunderstorms and Rain
5:35 AM 64.4 °F 62.6 °F 94% 29.82 in 10.0 mi SW 8.1 mph - 0.03 in Rain Rain
5:55 AM 64.4 °F 62.6 °F 94% 29.84 in 7.0 mi SSW 8.1 mph - 0.09 in Rain , Thunderstorm Thunderstorms and Rain
6:15 AM 64.4 °F 62.6 °F 94% 29.80 in 7.0 mi SE 16.1 mph 20.7 mph 0.05 in Rain , Thunderstorm Rain
6:35 AM 62.6 °F 60.8 °F 94% 29.82 in 10.0 mi SSE 8.1 mph - 0.06 in Rain Light Rain
6:55 AM 62.6 °F 59.0 °F 88% 29.84 in 10.0 mi South 8.1 mph - 0.07 in Rain Light Rain
7:15 AM 60.8 °F 60.8 °F 100% 29.82 in 7.0 mi South 3.5 mph - 0.04 in Rain Light Rain
7:35 AM 62.6 °F 60.8 °F 94% 29.81 in 10.0 mi South 5.8 mph - 0.05 in Rain Light Rain
7:55 AM 62.6 °F 62.6 °F 100% 29.80 in 10.0 mi SSE 6.9 mph - 0.05 in   Overcast
8:15 AM 64.4 °F 62.6 °F 94% 29.78 in 10.0 mi SE 5.8 mph - N/A   Scattered Clouds
8:35 AM 64.4 °F 62.6 °F 94% 29.77 in 10.0 mi East 6.9 mph - N/A   Clear
8:55 AM 64.4 °F 62.6 °F 94% 29.75 in 10.0 mi SE 6.9 mph - N/A   Clear
9:15 AM 64.4 °F 62.6 °F 94% 29.77 in 10.0 mi SSE 5.8 mph - N/A   Clear
9:35 AM 64.4 °F 62.6 °F 94% 29.80 in 10.0 mi WSW 6.9 mph - N/A   Scattered Clouds
9:55 AM 64.4 °F 62.6 °F 94% 29.80 in 10.0 mi West 9.2 mph - N/A   Overcast
10:15 AM 64.4 °F 64.4 °F 100% 29.78 in 10.0 mi West 6.9 mph - N/A   Overcast
10:35 AM 66.2 °F 64.4 °F 94% 29.80 in 10.0 mi WSW 8.1 mph - N/A   Overcast
10:55 AM 68.0 °F 64.4 °F 88% 29.80 in 10.0 mi WSW 8.1 mph - N/A   Mostly Cloudy
11:15 AM 68.0 °F 64.4 °F 88% 29.81 in 10.0 mi WSW 11.5 mph 16.1 mph N/A   Scattered Clouds
11:35 AM 68.0 °F 64.4 °F 88% 29.82 in 10.0 mi SW 11.5 mph 20.7 mph N/A   Overcast
11:55 AM 69.8 °F 64.4 °F 83% 29.82 in 10.0 mi SW 9.2 mph 17.3 mph N/A   Mostly Cloudy
12:15 PM 69.8 °F 64.4 °F 83% 29.83 in 10.0 mi WSW 9.2 mph - N/A   Mostly Cloudy
12:35 PM 69.8 °F 64.4 °F 83% 29.83 in 10.0 mi WSW 9.2 mph 17.3 mph N/A   Overcast
12:55 PM 71.6 °F 64.4 °F 78% 29.83 in 10.0 mi WSW 13.8 mph - N/A   Mostly Cloudy
1:15 PM 71.6 °F 62.6 °F 73% 29.83 in 10.0 mi SW 12.7 mph 18.4 mph N/A   Mostly Cloudy
1:35 PM 73.4 °F 62.6 °F 69% 29.83 in 10.0 mi WSW 16.1 mph 19.6 mph N/A   Scattered Clouds
1:55 PM 73.4 °F 62.6 °F 69% 29.84 in 10.0 mi WSW 15.0 mph - N/A   Clear
2:15 PM 73.4 °F 59.0 °F 61% 29.84 in 10.0 mi WSW 15.0 mph 25.3 mph N/A   Mostly Cloudy
2:35 PM 71.6 °F 62.6 °F 73% 29.84 in 10.0 mi West 12.7 mph 19.6 mph N/A   Overcast
2:55 PM 71.6 °F 60.8 °F 69% 29.85 in 10.0 mi West 12.7 mph 18.4 mph N/A   Overcast
3:15 PM 73.4 °F 60.8 °F 65% 29.86 in 10.0 mi West 12.7 mph - N/A   Overcast
3:35 PM 71.6 °F 59.0 °F 64% 29.87 in 10.0 mi West 13.8 mph 20.7 mph N/A   Overcast
3:55 PM 71.6 °F 55.4 °F 57% 29.87 in 10.0 mi West 15.0 mph 21.9 mph N/A   Mostly Cloudy
4:15 PM 69.8 °F 55.4 °F 60% 29.88 in 10.0 mi West 10.4 mph - N/A   Mostly Cloudy
4:35 PM 71.6 °F 55.4 °F 57% 29.89 in 10.0 mi WSW 9.2 mph - N/A   Scattered Clouds
4:55 PM 71.6 °F 55.4 °F 57% 29.89 in 10.0 mi West 9.2 mph 18.4 mph N/A   Scattered Clouds
5:15 PM 71.6 °F 53.6 °F 53% 29.88 in 10.0 mi West 9.2 mph 20.7 mph N/A   Scattered Clouds
5:35 PM 71.6 °F 55.4 °F 57% 29.88 in 10.0 mi WSW 8.1 mph - N/A   Scattered Clouds
5:55 PM 69.8 °F 53.6 °F 56% 29.88 in 10.0 mi WSW 11.5 mph - N/A   Mostly Cloudy
6:15 PM 71.6 °F 55.4 °F 57% 29.88 in 10.0 mi WSW 9.2 mph - N/A   Overcast
6:35 PM 69.8 °F 55.4 °F 60% 29.88 in 10.0 mi West 9.2 mph - N/A   Mostly Cloudy
6:55 PM 69.8 °F 55.4 °F 60% 29.89 in 10.0 mi West 11.5 mph 19.6 mph N/A   Mostly Cloudy
7:15 PM 69.8 °F 53.6 °F 56% 29.89 in 10.0 mi West 15.0 mph 18.4 mph N/A   Scattered Clouds
7:35 PM 68.0 °F 55.4 °F 64% 29.90 in 10.0 mi West 10.4 mph - N/A   Mostly Cloudy
7:55 PM 68.0 °F 53.6 °F 60% 29.90 in 10.0 mi West 9.2 mph - N/A   Overcast
8:15 PM 66.2 °F 55.4 °F 68% 29.91 in 10.0 mi WSW 6.9 mph - N/A   Mostly Cloudy
8:35 PM 64.4 °F 55.4 °F 73% 29.91 in 10.0 mi West 5.8 mph - N/A   Scattered Clouds
8:55 PM 62.6 °F 55.4 °F 77% 29.92 in 10.0 mi WSW 5.8 mph - N/A   Clear
9:15 PM 62.6 °F 55.4 °F 77% 29.93 in 10.0 mi WSW 3.5 mph - N/A   Mostly Cloudy
9:35 PM 64.4 °F 55.4 °F 73% 29.94 in 10.0 mi WSW 3.5 mph - N/A   Overcast
9:55 PM 64.4 °F 55.4 °F 73% 29.94 in 10.0 mi WSW 4.6 mph - N/A   Overcast
10:15 PM 64.4 °F 55.4 °F 73% 29.95 in 10.0 mi WSW 4.6 mph - N/A   Overcast
10:35 PM 62.6 °F 55.4 °F 77% 29.95 in 10.0 mi West 5.8 mph - N/A   Overcast
10:55 PM 62.6 °F 57.2 °F 82% 29.95 in 10.0 mi West 5.8 mph - N/A   Overcast
11:15 PM 62.6 °F 55.4 °F 77% 29.97 in 10.0 mi WNW 5.8 mph - N/A   Mostly Cloudy
11:35 PM 62.6 °F 55.4 °F 77% 29.97 in 10.0 mi West 9.2 mph - N/A   Clear
11:55 PM 62.6 °F 53.6 °F 72% 29.98 in 10.0 mi West 8.1 mph - N/A   Mostly Cloudy